This demonstration page uses our WeatherBlox Daily Observations layout. Learn more.

Left ArrowRight Arrow

Hourly Observations for May 18, 2018

Temp ( °F °C ) Dew Point ( °F °C ) Humidity (%) Winds ( mph kmh ) Pressure ( in mb ) Visibility ( mi km ) Precip ( " mm )
12:53 am 00:53 Clear 69 20.6 56 13.3 63 63 SSE 13 20 29.83 1010 10 16 0.00 0.00
1:53 am 01:53 Clear 69 20.6 56 13.3 63 63 SSE 15 24 29.81 1010 10 16 0.00 0.00
2:53 am 02:53 Clear 67 19.4 56 13.3 68 68 SE 12 19 29.83 1010 10 16 0.00 0.00
3:53 am 03:53 Partly Cloudy 66 18.9 56 13.3 70 70 SSE 10 17 29.83 1010 10 16 0.00 0.00
4:53 am 04:53 Cloudy 64 17.8 56 13.3 75 75 SSE 10 17 29.83 1010 10 16 0.00 0.00
5:53 am 05:53 Cloudy 63 17.2 55 12.8 76 76 SE 10 17 29.83 1010 10 16 0.00 0.00
6:53 am 06:53 Mostly Cloudy 63 17.2 55 12.8 76 76 Calm 29.86 1011 10 16 0.00 0.00
7:53 am 07:53 Mostly Cloudy 63 17.2 56 13.3 78 78 Calm 29.88 1012 10 16 0.00 0.00
8:53 am 08:53 Cloudy 61 16.1 59 15 93 93 NNW 24 39 29.92 1013 10 16 0.00 0.03
9:33 am 09:33 Cloudy with Nearby Thunderstorms 61 16 57 14 88 88 NNW 18 30 29.97 1015 5 8 0.00 0.00
9:39 am 09:39 Cloudy with Nearby Thunderstorms 59 15 58 14.4 96 96 N 17 28 29.97 1015 2 3 0.11 2.79
9:42 am 09:42 Cloudy with Heavy Rain 61 16 57 14 88 88 N 18 30 29.97 1015 2 3 0.00 0.00
9:53 am 09:53 Cloudy with Heavy Rain 60 15.6 58 14.4 93 93 N 25 41 29.93 1014 3 4 0.20 5.08
10:01 am 10:01 Cloudy with Light Rain 61 16 57 14 88 88 NNE 24 39 29.94 1014 5 8 0.00 0.00
10:53 am 10:53 Cloudy with Light Rain 60 15.6 57 13.9 90 90 E 29 46 29.76 1008 10 16 0.07 1.78
11:53 am 11:53 Cloudy 63 17.2 56 13.3 78 78 ESE 14 22 29.81 1010 10 16 0.00 0.03
12:53 pm 12:53 Cloudy 65 18.3 59 15 81 81 SE 12 19 29.83 1010 10 16 0.00 0.00
1:53 pm 13:53 Cloudy 66 18.9 59 15 78 78 ESE 6 9 29.85 1011 10 16 0.00 0.00
2:53 pm 14:53 Cloudy 69 20.6 59 15 70 70 SE 8 13 29.86 1011 10 16 0.00 0.00
3:04 pm 15:04 Cloudy with Nearby Thunderstorms 70 21 57 14 64 64 SSE 5 7 29.85 1011 10 16 0.00 0.00
3:21 pm 15:21 Cloudy 68 20 59 15 73 73 ESE 7 11 29.85 1011 10 16 0.00 0.00
3:53 pm 15:53 Cloudy 69 20.6 60 15.6 73 73 ESE 8 13 29.85 1011 10 16 0.00 0.00
4:53 pm 16:53 Cloudy 69 20.6 62 16.7 78 78 NE 8 13 29.85 1011 10 16 0.00 0.00
5:53 pm 17:53 Cloudy 67 19.4 60 15.6 79 79 NE 10 17 29.87 1012 10 16 0.00 0.00
6:53 pm 18:53 Cloudy 66 18.9 59 15 78 78 ENE 9 15 29.86 1011 10 16 0.00 0.00
7:53 pm 19:53 Mostly Sunny 66 18.9 60 15.6 81 81 NE 12 19 29.84 1010 10 16 0.00 0.00
8:53 pm 20:53 Mostly Cloudy 65 18.3 58 14.4 78 78 NE 9 15 29.83 1010 10 16 0.00 0.00
9:53 pm 21:53 Cloudy 64 17.8 59 15 84 84 NE 9 15 29.85 1011 10 16 0.00 0.00
10:53 pm 22:53 Mostly Cloudy 64 17.8 58 14.4 81 81 ENE 12 19 29.85 1011 10 16 0.00 0.00
11:53 pm 23:53 Partly Cloudy 64 17.8 57 13.9 78 78 E 8 13 29.86 1011 10 16 0.00 0.00

Powered by AerisWeather